全球星 M085星 (GLOBALSTAR M085)

导读

GLOBALSTAR M085是全球星卫星通信公司运营的低轨道通信卫星,隶属于第二代全球星卫星星座,于2011年7月13日发射。该卫星主要提供全球范围的移动语音与数据通信服务,满足偏远地区通信需求。它采用先进通信技术,传输效率和稳定性较高,已在轨运行十余年,作为全球星网络的重要节点,广泛服务于海事、航空及陆地移动通信领域,保障全球用户获得可靠通信连接。

Basic Information
目录编号:
37742
目录名称:
GLOBALSTAR M085
国际标识:
2011-033D
轨道中心:
EARTH
卫星名称:
全球星 M085星
卫星全名:
全球星 M085星 (GLOBALSTAR M085)
卫星状态:
在轨 (已飞行5453 天)
发射日期:
2011-07-13 UTC
国别 :
(GLOB)
星等 :
--
Orbit Information
数据来源 国际轨道数据 AOE轨道数据
星历时间 2026-06-17T03:36:54+0800
13小时前
查看轨道信息
2026-06-17T03:00:00+0800
13小时前
查看轨道信息
半长轴 7791.751km 7791.736km
偏心率 0.000012 0.0000025
轨道倾角 52.010° 52.010°
近地点辐角 286.883° 137.241°
升交点赤经 194.333° 194.409°
平近点角 243.771° 276.912°
近地点 1413.52km 1413.579km
远地点 1413.708km 1413.619km
周期 114.081分钟 114.080分钟
每日圈数 12.622641 12.622676
Detailed Information
固有亮度:
5
最大亮度:
7.2
平衡模式:
三轴稳定
覆盖范围:
全球
运营商:
全球星公司
运营商所在国:
美国
使用方式:
暂无
Satellite Introduction
全球星星座由48颗卫星加8颗备份星组成。这些卫星分布在8个倾角为52度的圆形轨道平面上,每个轨道平面6颗卫星,另有1 颗备用星。轨道高度约为1414km,传输时延和处理时延小于300ms,整个系统的覆盖区为南北纬70度以内的地区。该卫星已退役。
2D Orbit Map
3D Orbit Map
Orbit Altitude Analysis Chart
Orbit Inclination Analysis Chart
Orbit Comprehensive Analysis Chart
View Comprehensive Chart